This demonstration page uses our WeatherBlox Daily Observations layout. Learn more.

Left ArrowRight Arrow

34.74481, -87.66753

Hourly Observations for September 17, 2019

Temp ( °F °C ) Dew Point ( °F °C ) Humidity (%) Winds ( mph kmh ) Pressure ( in mb ) Visibility ( mi km ) Precip ( " mm )
12:53 am 00:53 Clear 75 23.9 69 20.6 82 82 Calm 29.99 1016 10 16 0.00 0.00
1:53 am 01:53 Clear 73 22.8 69 20.6 87 87 Calm 29.99 1016 10 16 0.00 0.00
2:53 am 02:53 Clear 71 21.7 67 19.4 87 87 Calm 29.98 1015 10 16 0.00 0.00
3:53 am 03:53 Clear 72 22.2 68 20 87 87 Calm 29.98 1015 9 14 0.00 0.00
4:53 am 04:53 Clear 71 21.7 68 20 90 90 Calm 29.99 1016 8 13 0.00 0.00
5:53 am 05:53 Clear 70 21.1 67 19.4 90 90 Calm 30.01 1016 9 14 0.00 0.00
6:53 am 06:53 Sunny 71 21.7 67 19.4 87 87 Calm 30.02 1017 8 13 0.00 0.00
7:53 am 07:53 Sunny 75 23.9 70 21.1 84 84 Calm 30.04 1017 8 13 0.00 0.00
8:53 am 08:53 Sunny 82 27.8 67 19.4 60 60 Calm 30.04 1017 10 16 0.00 0.00
9:53 am 09:53 Sunny 89 31.7 68 20 50 50 Calm 30.04 1017 10 16 0.00 0.00
10:53 am 10:53 Sunny 93 33.9 68 20 44 44 Calm 30.04 1017 10 16 0.00 0.00
11:53 am 11:53 Sunny 96 35.6 67 19.4 39 39 VRB 5 7 30.03 1017 10 16 0.00 0.00
12:53 pm 12:53 Sunny 97 36.1 66 18.9 36 36 NE 3 6 30.01 1016 10 16 0.00 0.00
1:53 pm 13:53 Sunny 98 36.7 66 18.9 35 35 VRB 6 9 29.98 1015 10 16 0.00 0.00
2:53 pm 14:53 Sunny 99 37.2 64 17.8 32 32 WNW 8 13 29.96 1015 10 16 0.00 0.00
3:53 pm 15:53 Sunny 99 37.2 63 17.2 31 31 NW 7 11 29.95 1014 10 16 0.00 0.00
4:53 pm 16:53 Sunny 98 36.7 64 17.8 33 33 NW 7 11 29.94 1014 10 16 0.00 0.00
5:53 pm 17:53 Mostly Sunny 96 35.6 65 18.3 36 36 WNW 9 15 29.93 1014 10 16 0.00 0.00
6:53 pm 18:53 Sunny 89 31.7 68 20 50 50 NW 5 7 29.93 1014 10 16 0.00 0.00
7:53 pm 19:53 Clear 85 29.4 69 20.6 59 59 NW 5 7 29.94 1014 10 16 0.00 0.00
8:53 pm 20:53 Partly Cloudy 83 28.3 70 21.1 65 65 Calm 29.96 1015 10 16 0.00 0.00
9:53 pm 21:53 Clear 80 26.7 70 21.1 71 71 Calm 29.97 1015 10 16 0.00 0.00
10:53 pm 22:53 Clear 77 25 71 21.7 82 82 Calm 29.98 1015 10 16 0.00 0.00
11:53 pm 23:53 Clear 76 24.4 71 21.7 85 85 Calm 29.97 1015 10 16 0.00 0.00

Powered by AerisWeather